Date,TemperatureHighF,TemperatureAvgF,TemperatureLowF,DewpointHighF,DewpointAvgF,DewpointLowF,HumidityHigh,HumidityAvg,HumidityLow,PressureMaxIn,PressureMinIn,WindSpeedMaxMPH,WindSpeedAvgMPH,GustSpeedMaxMPH,PrecipitationSumIn
2013-2-1,17.2,13.5,8.8,11.1,7.9,2.2,88,78,67,30.31,29.93,10,5,17,0.00
2013-2-2,20.2,13.7,1.8,16.3,9.6,-1.2,88,83,76,30.26,30.03,6,2,13,0.00
2013-2-3,19.4,10.1,-2.3,15.2,5.5,-5.5,90,82,67,30.09,29.92,8,2,14,0.00
2013-2-4,22.9,17.2,9.4,17.2,13.0,5.0,88,83,76,30.09,29.94,3,0,5,0.00
2013-2-5,26.9,18.7,3.7,26.4,15.0,0.9,99,86,70,30.03,29.85,8,2,14,0.00
2013-2-6,30.5,21.6,7.4,21.7,15.1,4.8,94,77,60,30.34,30.03,9,2,12,0.02
2013-2-7,37.7,30.0,24.8,28.4,22.9,17.1,88,75,68,30.33,29.94,6,3,13,0.01
2013-2-8,28.3,23.8,11.1,27.5,20.7,8.5,100,88,72,30.41,29.87,13,5,27,0.01
2013-2-9,32.7,16.2,-2.4,21.0,10.3,-5.7,94,79,54,30.52,30.33,6,1,11,0.24
2013-2-10,39.4,31.1,21.0,36.7,25.2,18.1,92,79,62,30.34,29.71,13,5,23,0.21
2013-2-11,43.7,36.8,31.4,41.9,31.7,25.6,95,82,68,29.87,29.56,16,9,25,0.03
2013-2-12,31.4,29.2,27.0,25.6,23.4,21.2,81,79,75,30.07,29.88,10,5,18,0.00
2013-2-13,38.1,29.5,25.6,28.2,24.0,21.3,92,80,65,29.98,29.77,5,2,10,0.00
2013-2-14,40.0,33.8,28.7,34.6,30.3,26.1,92,87,80,29.87,29.69,12,5,22,0.03
2013-2-15,32.4,25.6,20.8,28.3,17.7,12.9,86,72,59,30.17,29.88,9,5,16,0.00
2013-2-16,23.3,18.8,13.7,18.6,13.8,9.9,89,81,68,30.15,30.04,7,2,12,0.00
2013-2-17,22.0,14.0,5.7,14.1,7.0,1.9,89,74,53,30.27,30.12,9,3,15,0.01
2013-2-18,39.0,24.8,14.6,26.7,15.2,6.9,72,67,59,30.27,29.82,12,7,25,0.00
2013-2-21,22.2,20.1,19.0,18.1,14.9,13.9,88,80,71,30.43,30.33,4,2,15,0.00
2013-2-22,32.4,26.4,21.1,31.1,23.8,17.7,95,90,83,30.33,29.92,9,4,15,0.01
2013-2-23,32.4,28.9,23.6,30.9,24.0,19.8,94,82,69,29.96,29.90,9,4,14,0.02
2013-2-24,35.5,26.7,18.5,27.3,22.3,16.1,92,84,64,30.20,29.93,8,2,15,0.06
2013-2-25,41.9,29.9,17.3,27.8,22.6,14.9,93,76,52,30.29,30.15,3,0,7,0.01
2013-2-26,36.1,30.8,25.6,31.5,26.5,20.9,95,84,70,30.18,29.57,5,2,14,0.17
2013-2-27,35.3,33.6,32.4,34.0,32.2,31.1,96,95,92,29.60,29.50,3,0,7,0.46
2013-2-28,33.8,31.8,28.1,32.0,29.3,23.9,96,91,82,30.03,29.58,10,6,21,0.17